Regional Weather Roundup
Issued by NWS State College, PA

Home | Current Version | Previous Version | Text Only | Print | Product List | Glossary On
Versions: 1 2 3 4 5 6 7 8 9 10 11 12 13 14 15 16 17 18 19 20 21 22 23 24 25 26 27 28 29 30 31 32 33 34 35 36 37 38 39 40 41 42 43 44 45 46 47 48 49 50
000
ASUS41 KCTP 290310
RWRCTP

REGIONAL WEATHER ROUNDUP
NATIONAL WEATHER SERVICE STATE COLLEGE PA
1100 PM EDT THU JUL 28 2016

Note: "fair" indicates few or no clouds below 12,000 feet with no
significant weather and/or obstructions to visibility.

* = STATION THAT DOES NOT REPORT PRECIPITATION /E.G. RAIN...SNOW...ETC/
    THUNDER OR FOG.

PAZ002>004-007>009-013>016-020>023-029>032-290400-
WESTERN PENNSYLVANIA

CITY           SKY/WX    TMP DP  RH WIND       PRES   REMARKS
ERIE           PTCLDY    73  66  78 CALM      29.91R
MEADVILLE      CLEAR     67  65  93 CALM      29.94S
FRANKLIN*      PTCLDY    66  63  88 SE3       29.96F
NEW CASTLE     FAIR      68  66  93 CALM      29.93F
BEAVER COUNTY  NOT AVBL
BUTLER*        PTCLDY    68  64  88 CALM      29.96F
PITTSBURGH INT MOCLDY    69  67  93 CALM      29.92F
PITTSBURGH     MOCLDY    70  67  90 CALM      29.93F FOG
INDIANA*       CLOUDY    70  70 100 CALM      29.98S FOG
LATROBE        MOCLDY    68  68 100 CALM      29.95F
WASHINGTON CO* CLOUDY    70  66  88 CALM      29.94F
$$

PAZ004>006-010>012-017>019-024>028-033>037-041-042-045-046-049>053-290400-
CENTRAL PENNSYLVANIA

CITY           SKY/WX    TMP DP  RH WIND       PRES   REMARKS
BRADFORD       CLOUDY    68  66  93 CALM      29.97S FOG
DUBOIS         CLOUDY    68  65  90 CALM      29.96F FOG
CLEARFIELD     LGT RAIN  70  67  90 NW3       29.96S FOG
JOHNSTOWN      LGT RAIN  66  64  93 CALM      29.98S FOG
ALTOONA        LGT RAIN  69  69 100 CALM      29.96S FOG
STATE COLLEGE  LGT RAIN  68  67  98 CALM      29.95R
WILLIAMSPORT   CLOUDY    75  63  66 W6        29.89S
SELINSGROVE    LGT RAIN  73  73 100 CALM      29.91R FOG
FT INDIANTOWN  CLOUDY    71  71 100 N1        29.89S
CAPITAL CITY   CLOUDY    77  71  82 NE5       29.88F
HARRISBURG     CLOUDY    75  74  96 N3        29.87F
YORK           CLOUDY    74  72  93 CALM      29.87F
$$

PAZ038>040-043-044-047-048-054-055-060>062-067>071-290400-
EASTERN PENNSYLVANIA

CITY           SKY/WX    TMP DP  RH WIND       PRES   REMARKS
SCRANTON       CLOUDY    74  69  85 CALM      29.92S
MOUNT POCONO   CLOUDY    68  66  93 W5        29.96S
ALLENTOWN      LGT RAIN  73  72  94 CALM      29.89S FOG
QUAKERTOWN*    CLOUDY    73  73 100 CALM      29.90F
READING        LGT RAIN  73  71  93 N5        29.88F FOG
LANCASTER      CLOUDY    73  72  96 NE6       29.87F FOG
COATESVILLE    LGT RAIN  72  72 100 CALM      29.89F
POTTSTOWN      LGT RAIN  73  72  96 NW3       29.89F FOG
BLUE BELL      CLOUDY    72  72 100 CALM      29.86F
DOYLESTOWN     LGT RAIN  71  71 100 CALM      29.88F
WILLOW GROVE   NOT AVBL
NORTH PHILA    CLOUDY    76  72  87 NE3       29.89S
PHILADELPHIA   LGT RAIN  76  72  87 N3        29.87F
$$



USA.gov is the U.S. government's official web portal to all federal, state and local government web resources and services.